Theta_e
345 346 346 346 346 346 348 350 349 349 347 349 349 348 347 348 347 347 347 347 345 342 342 342 344 343 345 344 344 345 345 345 346 345 345 344 344 344 343 344 343 343 343 343 342 340 339 339 337 337 337 335 333 327 332 331 332 335 333 336 339 332
344 345 346 346 346 346 346 348 346 346 346 348 347 347 346 345 347 343 347 343 341 344 339 340 342 346 343 345 344 346 346 346 346 345 345 344 344 344 344 344 344 343 343 343 339 330 329 332 334 334 334 333 327 325 329 331 332 333 334 334 336 334
344 346 346 346 346 346 345 346 345 345 346 348 347 347 343 343 339 339 340 340 340 339 339 340 341 344 344 346 345 345 345 345 345 345 345 344 344 343 343 344 344 343 341 340 331 328 328 326 325 331 331 327 325 325 326 331 331 333 334 334 334 337
344 346 345 345 346 345 344 344 344 342 340 340 340 340 338 338 338 338 338 337 338 340 339 337 346 346 345 342 341 342 343 343 345 344 344 344 344 343 344 344 343 341 337 332 329 329 328 326 325 324 323 324 325 324 324 330 331 332 333 334 333 337
345 345 345 344 343 340 340 341 340 339 337 337 336 335 335 335 337 337 337 337 337 337 334 333 334 334 334 335 334 335 336 336 336 337 342 336 336 336 335 332 333 333 330 330 328 327 328 329 328 327 327 326 325 323 324 331 331 332 332 333 337 338
344 342 340 340 341 341 340 339 337 337 335 334 334 334 333 334 335 336 335 336 336 332 332 332 332 332 332 332 333 333 332 331 332 335 338 335 334 332 334 335 334 333 333 332 331 330 329 331 329 328 327 327 324 325 323 327 331 332 332 333 336 338
342 341 340 342 342 340 338 337 336 335 334 332 333 332 332 332 333 334 335 337 333 331 330 329 330 330 330 330 331 333 331 330 330 333 333 334 335 334 335 335 334 335 334 334 334 332 330 330 327 327 327 327 325 324 322 326 330 332 332 333 335 338
341 341 340 341 340 338 336 335 337 339 333 337 334 331 330 332 333 333 335 336 335 331 330 329 329 329 329 330 332 331 330 330 331 330 332 331 330 334 337 336 335 334 334 334 334 332 328 328 327 327 326 326 325 323 322 326 330 331 332 333 334 337
341 341 340 340 337 336 335 334 336 332 333 339 330 330 330 333 332 333 334 336 336 331 330 329 329 329 328 329 330 331 330 329 329 331 330 329 330 331 333 334 333 331 329 329 328 329 331 330 328 327 325 325 325 322 321 326 329 329 331 332 333 336
340 339 338 338 335 335 334 335 334 331 333 335 328 329 330 329 330 331 333 336 334 331 331 331 329 328 329 328 329 329 330 330 330 330 331 329 330 329 330 329 328 330 330 330 331 331 333 331 330 328 325 325 325 324 323 325 328 329 331 333 333 335
336 340 336 335 334 333 333 333 334 332 333 330 332 333 332 330 330 331 332 335 334 334 330 330 330 330 329 329 328 328 328 328 328 329 329 329 329 329 327 328 328 329 329 329 331 331 332 331 329 328 325 327 328 325 324 327 328 329 331 332 333 334
335 336 335 334 336 333 331 332 332 333 333 332 333 332 332 332 333 331 332 332 332 330 331 329 330 331 332 330 328 326 327 326 327 327 328 329 330 328 329 330 332 331 330 330 329 330 330 330 328 326 326 328 328 325 324 327 328 329 331 332 332 334
337 338 334 334 334 333 333 334 332 332 334 334 334 333 332 332 330 330 330 331 329 329 329 327 326 330 331 330 329 326 326 326 327 328 329 329 329 329 329 328 328 329 328 328 329 329 330 328 326 327 327 328 328 327 323 327 327 329 330 332 332 333
337 335 334 332 332 331 331 331 332 334 335 333 333 332 333 332 333 331 331 331 329 329 328 327 326 326 328 328 328 327 326 327 327 328 328 329 327 326 327 327 327 327 330 328 327 327 327 327 327 328 327 327 327 327 325 327 327 328 330 331 332 333
338 336 335 332 331 331 330 331 332 333 333 332 332 332 330 331 332 331 330 330 331 330 330 328 328 326 327 326 327 327 328 329 329 327 327 327 327 325 325 326 326 327 326 325 326 327 326 327 327 328 328 328 327 328 327 327 328 328 329 331 331 333
336 334 332 332 330 331 331 331 333 335 332 332 331 329 329 330 330 330 329 328 330 332 332 329 328 327 327 326 327 328 329 329 330 326 326 328 328 327 325 325 326 326 326 325 326 325 326 327 328 328 328 328 328 328 327 326 327 328 329 330 331 332
334 333 332 332 331 330 331 332 333 333 332 331 329 327 328 329 331 331 331 330 330 332 333 329 328 328 328 327 326 327 329 330 329 325 325 326 327 327 326 326 326 328 327 325 325 324 325 326 327 327 328 328 327 327 327 327 326 327 328 328 329 330
334 332 332 331 330 330 331 331 332 333 333 329 327 325 326 327 327 329 330 329 330 331 331 328 328 328 327 327 326 326 329 329 328 326 325 326 327 329 327 327 326 328 327 324 323 323 325 326 327 327 327 327 327 327 327 327 328 329 327 327 328 329
331 330 329 329 329 327 326 327 328 327 324 321 321 321 322 323 323 326 327 326 328 330 332 327 329 329 326 327 327 327 328 328 328 327 326 326 328 329 327 327 327 326 327 326 326 325 324 325 326 326 325 325 327 327 326 326 326 326 326 327 328 328
328 328 327 327 327 325 324 324 324 322 320 319 319 322 319 320 320 322 325 326 326 326 329 328 327 328 329 328 327 327 327 327 327 326 326 326 327 328 328 326 327 327 326 327 329 328 324 323 322 322 322 323 325 326 329 326 325 325 325 325 325 326
324 325 326 325 324 323 319 316 317 316 316 314 318 317 317 317 317 318 317 320 325 325 326 328 327 324 325 330 326 326 326 326 326 326 325 325 326 327 328 328 327 327 326 326 326 327 324 321 320 321 320 320 322 325 329 328 326 325 326 326 326 325
322 323 325 325 324 318 314 319 318 316 314 315 317 316 315 315 317 318 318 317 318 319 322 325 326 325 324 325 324 324 325 325 326 324 324 325 324 326 328 328 328 326 328 325 324 326 325 322 317 316 315 316 318 321 325 325 327 328 328 328 326 325
322 322 322 323 321 317 314 315 315 313 316 313 313 315 316 317 317 315 314 315 316 316 317 317 320 323 322 323 323 323 324 325 325 326 325 325 325 325 325 326 327 325 324 325 324 325 326 323 319 315 316 315 312 314 318 320 321 325 327 328 326 325
320 319 319 322 320 316 317 316 316 315 313 314 315 318 315 314 314 314 314 314 315 313 314 315 317 321 321 320 321 321 322 323 324 326 325 324 324 324 323 324 326 325 325 322 324 325 328 323 319 317 313 313 311 311 310 313 315 321 324 326 327 328
318 318 319 320 318 319 318 315 315 315 316 315 315 314 314 313 314 317 314 313 313 313 314 314 314 315 317 313 314 317 320 321 323 323 324 323 323 323 324 323 324 324 323 323 322 324 325 326 322 321 318 312 309 307 308 313 316 318 321 324 324 328
315 317 317 317 318 319 317 315 314 314 312 311 311 311 310 311 310 311 311 312 312 312 312 312 312 313 315 315 314 315 318 320 318 317 318 317 317 318 321 322 322 322 319 321 322 322 322 324 324 322 319 317 314 312 311 316 315 312 318 320 321 324
317 316 316 317 318 318 315 314 315 314 314 313 311 308 307 309 311 310 311 311 310 310 310 311 311 312 313 314 313 313 313 313 314 315 317 313 313 313 314 316 319 321 321 320 322 321 321 322 323 323 320 320 320 317 316 316 311 311 313 317 319 319
318 318 316 316 316 317 314 313 312 312 313 312 312 311 309 310 310 312 310 309 309 308 309 310 311 311 312 314 313 312 312 313 314 315 315 311 311 311 313 315 316 316 317 318 321 320 320 321 319 320 321 319 318 317 316 316 315 315 311 313 314 317
317 317 315 316 316 314 316 313 313 313 312 311 311 311 313 313 311 310 308 307 308 308 309 309 310 311 311 314 316 311 311 312 313 314 316 312 311 311 311 311 311 311 312 314 317 318 318 315 317 318 317 317 316 313 312 313 314 313 311 308 308 308
316 315 315 315 315 314 314 314 312 311 311 310 312 311 310 309 308 308 307 306 307 307 308 308 309 309 310 311 311 312 311 312 312 315 315 310 310 310 310 310 310 310 309 309 309 310 310 310 314 315 316 314 313 310 309 309 309 310 310 310 308 308
315 315 315 314 314 314 313 313 313 311 311 311 310 311 309 307 306 306 306 305 306 306 307 307 309 309 309 310 312 314 311 312 315 318 313 310 310 310 309 309 309 309 308 308 308 308 309 309 308 308 308 309 308 308 309 308 308 308 308 307 308 306
314 315 314 314 314 313 313 312 312 312 312 312 312 312 310 308 307 307 306 305 305 306 306 307 307 308 309 310 312 311 312 311 312 309 309 309 309 309 309 308 308 309 308 307 308 309 307 307 307 307 307 307 308 308 308 308 307 307 308 307 307 305
314 313 313 313 312 311 312 312 312 312 312 313 313 312 311 309 307 307 305 305 305 305 305 307 306 308 308 308 310 310 310 311 310 311 309 309 308 309 308 308 308 307 307 307 306 306 306 305 306 307 306 306 307 307 306 306 306 305 304 304 304 303
315 314 312 311 311 311 311 312 312 313 312 313 312 312 310 309 307 306 306 306 306 306 306 307 306 307 306 308 308 310 310 308 309 309 309 308 308 308 308 307 307 307 306 306 306 306 306 305 305 305 305 305 305 305 305 306 306 306 305 305 303 303
314 314 312 312 311 312 312 312 312 312 313 313 313 312 311 310 308 306 306 306 305 305 306 305 306 307 309 307 308 307 308 308 308 309 310 310 310 308 309 308 308 307 306 305 306 306 305 305 305 304 304 305 304 304 303 304 305 305 305 306 305 303
315 315 315 314 312 312 312 313 313 312 313 314 314 312 312 311 309 308 307 307 306 306 306 305 306 307 308 307 307 308 308 306 306 307 309 308 307 307 307 307 307 307 308 308 305 304 304 304 303 303 303 303 304 303 303 303 304 304 304 305 304 303
316 316 316 315 314 313 312 313 312 313 313 313 313 312 312 310 309 309 308 306 307 306 305 306 308 308 307 306 306 306 306 306 306 307 308 308 307 307 308 308 307 307 306 306 306 304 304 304 302 303 303 303 303 303 303 304 303 303 303 303 303 303
Wind_Speed
7 8 8 8 8 7 8 12 10 12 11 12 11 12 12 12 10 9 9 9 7 5 4 4 5 4 8 4 5 6 8 8 8 8 7 6 5 4 3 3 3 3 5 5 6 8 8 8 7 7 7 6 6 3 4 5 4 4 4 3 3 3
5 6 5 5 4 5 6 9 7 7 6 9 9 8 7 5 7 4 9 7 4 4 3 4 4 5 3 4 5 6 7 7 8 8 6 5 5 4 3 2 3 4 5 7 8 4 4 6 7 7 6 6 4 3 3 5 5 4 4 4 4 3
5 6 6 5 4 5 5 6 7 6 6 8 7 6 6 6 5 5 5 5 4 4 3 3 3 4 3 5 4 6 6 7 7 7 6 5 5 3 4 4 3 5 7 8 4 3 3 4 4 5 5 4 3 3 2 4 4 4 4 3 3 4
5 6 5 4 4 5 5 5 6 5 5 5 5 5 5 5 5 5 5 4 4 4 4 3 6 8 6 3 3 3 4 5 6 6 5 3 4 3 4 4 6 6 4 3 3 3 3 3 4 4 4 3 2 1 2 4 4 3 2 3 3 5
4 5 6 5 5 4 4 5 5 5 5 5 5 5 5 5 5 5 4 4 4 3 3 3 3 4 3 4 4 2 2 2 2 2 4 3 3 3 3 3 4 4 3 3 3 3 4 4 3 4 4 3 0 1 0 3 3 3 3 3 3 6
5 6 5 4 4 5 6 5 5 5 5 4 5 5 4 4 4 4 4 4 4 4 4 4 3 3 4 3 4 2 1 2 2 2 2 3 3 2 3 3 3 3 3 2 2 2 2 2 3 3 3 3 1 1 1 2 3 4 4 4 3 7
5 5 6 6 5 5 4 4 4 4 5 4 4 5 5 4 4 4 4 4 5 4 4 4 3 2 3 3 3 2 3 4 2 2 2 1 2 2 2 2 2 2 2 3 3 2 3 2 3 3 3 3 1 2 2 3 3 3 3 3 3 7
5 6 5 6 6 5 4 4 5 5 4 5 5 5 4 4 4 4 4 4 4 4 4 4 3 3 2 4 3 1 3 2 2 2 3 4 1 2 2 2 2 2 2 2 2 3 3 3 3 2 3 2 2 2 2 3 3 3 3 3 3 4
5 6 5 5 6 6 5 4 4 4 4 6 4 4 4 4 4 3 3 4 4 4 3 4 4 3 3 3 2 3 4 3 1 2 2 3 4 2 1 2 2 2 2 2 2 3 3 3 3 3 2 2 2 3 3 3 3 3 3 4 3 4
4 5 4 5 5 5 5 4 4 4 4 4 3 3 3 3 3 4 3 4 2 4 5 4 3 3 3 3 2 3 4 3 3 3 3 1 3 2 1 1 2 2 3 2 3 2 3 3 3 3 2 2 1 3 3 4 4 4 4 4 4 3
2 4 4 5 4 5 5 4 4 3 3 4 4 3 3 3 3 3 4 4 3 3 2 3 2 3 3 3 3 3 3 3 3 4 4 4 3 3 1 1 2 2 2 1 1 2 2 3 3 2 2 2 2 2 3 3 3 4 4 4 3 2
3 4 5 5 5 5 4 4 5 4 4 4 4 4 3 3 4 3 4 4 3 3 4 3 3 2 3 3 3 3 1 2 3 3 3 4 3 2 2 2 1 2 2 1 1 2 2 1 3 3 2 2 2 1 2 3 3 4 4 4 4 3
5 4 5 5 5 4 4 5 5 4 4 3 3 3 3 3 4 3 4 4 3 4 3 3 2 4 4 3 2 2 2 2 2 3 3 4 3 2 1 1 1 2 2 2 2 2 1 1 3 3 3 3 3 2 1 3 3 3 4 5 4 4
5 6 6 5 5 5 4 4 4 4 4 4 4 4 3 4 4 4 4 3 3 4 2 2 3 4 3 3 2 2 2 1 1 3 3 3 2 2 1 1 1 2 2 2 2 1 1 2 3 2 3 3 3 2 0 3 3 3 3 2 3 4
6 6 6 5 5 5 5 6 4 4 4 3 4 4 3 3 4 4 4 4 2 3 3 3 1 3 2 3 2 1 1 1 1 2 3 2 2 1 1 1 1 1 1 1 2 2 2 3 3 2 3 3 3 3 2 1 2 2 2 2 3 2
6 6 6 6 5 5 5 6 5 5 4 3 3 3 2 2 2 3 4 3 2 3 3 3 2 3 2 2 3 3 2 2 3 2 2 2 2 1 1 1 1 1 2 1 2 3 2 3 2 2 2 3 3 4 3 2 1 2 2 3 3 3
8 7 6 6 6 5 6 6 6 5 5 4 3 2 2 2 2 3 3 4 3 3 4 4 3 3 2 2 3 3 2 2 2 2 2 2 1 2 2 2 1 1 1 2 2 3 2 1 1 2 2 3 3 3 3 2 1 2 2 3 3 2
7 6 6 7 6 6 6 6 5 5 5 4 3 3 3 3 3 2 3 4 4 3 2 3 4 4 3 2 2 2 1 2 2 2 2 2 1 2 2 2 2 1 1 2 1 3 3 2 1 2 3 3 3 3 3 3 2 2 2 3 3 3
6 6 7 7 7 7 7 6 5 5 4 4 3 3 2 3 3 2 3 3 4 4 3 3 4 4 4 4 4 3 2 2 2 2 1 1 1 1 2 2 2 1 2 2 2 1 2 3 2 2 3 3 3 3 2 3 3 3 3 2 2 2
4 5 6 6 6 6 5 5 6 5 5 4 3 3 2 2 1 1 0 0 1 1 2 3 3 2 1 2 2 3 3 2 2 2 1 0 1 1 1 2 3 1 2 3 3 2 3 2 3 4 3 3 3 4 4 3 3 3 3 3 2 1
5 5 7 7 5 6 5 4 4 4 5 2 3 2 2 2 3 2 2 1 1 2 3 3 3 3 2 2 3 3 3 3 2 1 0 1 1 1 1 2 3 2 1 2 1 1 3 2 4 3 3 4 4 4 4 5 5 4 4 3 2 2
6 5 6 7 6 5 3 5 5 5 5 4 4 4 3 2 2 3 3 2 2 3 4 4 4 3 3 4 4 3 2 2 2 1 1 1 1 1 0 2 3 2 2 1 3 0 2 2 1 4 1 3 3 2 4 5 5 5 4 3 3 3
5 5 5 6 6 5 3 4 5 4 6 4 2 2 4 2 3 5 4 4 3 3 4 4 4 4 4 4 5 4 3 3 3 2 2 1 1 1 1 1 3 3 2 0 1 1 3 1 1 2 5 2 2 2 2 3 3 3 4 4 3 3
5 4 5 5 5 5 7 7 7 7 4 4 4 3 5 4 4 5 5 4 4 4 4 5 3 4 4 4 5 5 4 3 3 2 2 1 1 1 1 1 1 3 3 1 1 1 3 4 2 2 2 1 0 1 1 1 1 3 4 4 4 4
5 5 6 6 7 8 9 8 7 6 6 7 5 5 5 5 4 3 3 5 4 3 4 5 4 3 4 5 4 4 4 4 4 3 3 2 2 1 1 1 0 2 2 2 2 2 3 3 5 3 4 3 3 1 3 1 2 1 3 3 4 4
3 4 7 6 7 7 7 9 8 7 6 5 5 4 4 4 3 4 4 1 4 4 3 5 4 4 4 4 5 5 5 5 4 3 3 3 2 2 1 1 2 2 2 1 1 2 1 4 2 4 4 2 4 3 4 2 2 2 2 1 3 3
6 6 6 6 5 6 6 6 8 8 7 7 7 1 0 1 3 3 3 4 3 4 3 5 4 4 5 4 5 5 5 5 5 4 3 5 4 3 2 1 1 2 2 3 3 2 2 2 2 4 3 3 3 1 3 5 3 2 3 1 2 2
6 7 6 6 5 5 8 5 6 5 6 6 6 5 4 4 2 2 5 4 5 5 5 4 5 5 4 4 5 5 5 5 6 4 4 5 5 4 4 3 3 2 3 3 4 5 3 2 1 2 2 2 3 2 3 2 4 5 4 6 2 3
6 6 6 6 6 4 6 7 7 6 6 3 4 5 4 3 4 2 6 3 5 4 5 5 4 4 4 4 4 5 5 6 6 5 5 5 5 5 5 5 4 4 4 4 2 1 2 2 1 1 1 4 3 2 3 4 4 4 3 4 2 3
5 4 5 5 5 5 5 7 7 6 8 5 5 4 4 4 3 3 5 3 4 5 5 5 4 4 4 4 4 4 5 5 5 5 4 6 5 6 5 5 4 5 4 6 4 4 4 2 2 2 2 2 2 0 3 3 5 4 7 4 5 2
4 4 5 6 6 6 5 5 7 7 8 8 5 6 6 3 3 3 5 3 4 4 4 5 4 4 4 3 4 4 5 5 4 4 5 5 5 5 4 5 5 5 6 6 5 6 6 5 4 5 4 3 4 4 3 3 3 4 3 4 5 4
3 4 5 5 5 5 5 4 5 7 8 9 9 7 8 7 4 5 4 4 2 5 4 5 4 5 4 3 4 5 5 5 5 5 5 4 5 5 4 4 5 5 5 5 4 6 5 6 6 6 6 4 5 5 5 5 3 3 4 3 5 4
4 2 3 3 4 4 5 5 7 7 7 7 8 8 7 7 5 5 5 5 4 6 4 5 4 5 3 2 3 5 4 5 4 4 4 4 4 4 4 5 5 6 5 5 4 5 6 5 5 6 6 4 5 5 5 2 3 4 4 4 5 5
4 6 3 3 3 4 4 6 6 6 7 7 7 7 6 7 5 4 5 5 4 5 6 5 4 4 2 2 3 3 4 4 4 4 3 4 4 3 4 5 5 6 5 4 5 7 6 6 6 5 4 6 5 5 5 3 4 5 4 5 5 5
7 2 2 4 6 7 6 4 3 3 5 6 7 6 6 6 6 5 3 5 3 3 5 3 4 2 2 4 3 4 3 5 4 4 4 4 4 4 4 5 5 5 4 4 6 6 5 6 6 6 6 6 6 5 5 5 5 5 4 5 4 3
2 3 6 5 2 2 3 4 5 6 6 5 4 5 5 4 4 5 5 5 5 3 3 4 2 2 2 3 4 4 4 4 3 3 2 4 3 4 4 5 5 5 5 2 6 6 5 6 6 6 6 4 6 5 4 5 5 5 5 5 5 4
6 8 8 4 9 9 5 3 3 3 4 5 6 6 6 5 5 4 5 4 5 4 2 3 3 2 3 3 3 4 4 4 3 3 3 2 3 3 3 4 5 5 5 4 6 6 5 6 5 5 5 6 5 5 4 4 5 5 5 5 5 5
Wind_Direction
120 129 136 141 143 148 157 152 138 135 141 128 128 127 126 123 123 124 120 118 103 96 105 113 114 122 129 110 127 126 139 143 143 140 137 139 126 122 113 89 76 69 55 52 57 57 50 45 41 43 52 48 55 76 145 147 152 148 150 163 159 184
123 123 121 127 131 136 153 144 130 133 140 127 132 125 116 114 112 94 114 107 101 107 105 110 126 125 110 135 139 145 146 149 150 148 147 140 135 123 110 90 42 35 40 45 45 49 41 33 31 39 43 50 41 52 126 159 158 162 164 169 167 198
116 119 124 126 128 134 133 126 123 126 125 128 125 95 87 93 84 96 92 94 93 99 113 108 107 123 135 140 140 148 156 154 155 156 150 137 133 126 112 86 58 34 40 41 44 42 43 35 22 27 40 45 23 29 76 152 163 172 174 181 158 199
125 123 127 133 117 114 117 106 103 90 87 90 88 97 99 101 97 101 105 103 109 112 107 130 155 153 148 117 121 104 158 168 166 159 154 126 113 125 97 71 66 56 32 43 39 31 33 34 34 29 25 52 29 354 81 169 175 185 159 205 172 204
107 126 127 137 122 87 95 98 90 97 98 97 102 99 101 98 104 104 101 105 103 90 82 67 51 59 66 93 84 52 34 34 33 51 95 82 76 57 69 72 54 49 41 33 35 11 13 14 34 20 11 353 148 311 73 166 184 182 182 216 192 206
107 119 119 134 103 124 114 106 114 118 110 106 115 106 104 106 102 101 107 105 95 87 74 68 54 71 68 89 98 83 28 31 44 50 84 96 76 62 73 62 61 44 28 23 34 355 350 12 17 19 355 320 215 220 107 179 183 191 196 205 213 209
115 117 127 113 123 93 99 99 97 120 122 114 106 112 111 110 109 113 112 115 111 104 99 96 97 86 93 82 108 106 34 13 28 46 19 32 67 74 60 64 55 47 20 354 331 325 331 45 67 35 352 321 210 220 149 167 200 201 208 215 222 223
113 112 126 125 99 103 99 122 143 130 118 141 126 122 127 125 124 118 119 113 115 124 133 135 134 132 107 87 94 88 82 341 358 43 18 321 2 26 49 52 57 49 347 331 320 313 10 31 17 56 349 332 235 230 161 154 179 217 213 228 239 245
103 114 109 118 121 123 132 138 113 123 144 147 125 136 135 129 124 125 113 121 132 131 146 159 162 135 107 108 117 122 146 177 80 41 63 316 349 357 37 57 66 63 67 17 352 343 354 5 355 63 28 336 229 221 184 156 170 198 207 210 227 244
131 118 115 113 121 127 140 138 137 146 159 129 138 131 128 115 126 126 128 127 139 164 182 165 128 113 132 133 122 103 118 146 135 123 145 169 263 316 134 115 105 81 74 59 35 352 3 340 352 78 54 35 273 237 203 183 172 183 194 207 212 238
123 122 106 110 126 136 145 136 135 146 114 129 136 134 130 127 123 125 133 136 170 190 105 75 114 157 146 123 111 115 125 133 124 127 176 181 196 222 175 139 154 132 112 93 64 322 359 338 341 51 42 75 340 271 226 208 179 168 182 201 197 193
149 128 131 136 143 145 142 137 136 132 122 137 150 149 147 133 133 120 118 121 170 73 67 79 119 115 88 102 119 115 135 121 135 131 140 155 182 200 157 146 142 130 129 113 19 353 324 333 10 3 19 55 2 310 211 197 185 180 179 180 193 182
149 143 139 147 136 136 136 129 126 135 143 145 149 143 141 137 124 126 118 120 101 96 112 124 88 87 91 84 116 125 123 114 132 129 139 156 150 149 134 111 40 36 65 45 38 5 356 62 57 17 14 14 24 19 170 168 189 181 186 187 184 171
158 150 151 133 129 130 132 120 136 151 135 136 150 146 143 140 138 131 118 103 126 111 125 142 134 112 116 105 81 109 120 121 126 128 130 139 150 169 153 104 44 39 46 46 55 359 106 67 48 53 37 350 25 14 61 152 175 197 203 213 178 163
168 160 144 131 127 129 130 126 128 118 120 129 134 134 123 127 139 136 120 142 168 140 158 180 167 114 108 110 107 102 123 117 141 124 118 125 142 153 83 78 40 62 50 60 58 40 83 108 92 53 28 359 11 14 41 122 153 164 175 150 150 184
165 161 140 137 130 125 116 108 123 110 108 108 112 100 114 117 115 108 117 121 152 160 156 184 152 117 129 139 129 152 148 146 130 114 114 127 133 162 58 68 50 63 107 62 101 57 42 100 81 69 42 41 11 14 32 29 131 162 146 137 154 158
168 157 140 131 123 112 107 111 103 110 111 111 110 116 121 114 117 130 138 131 166 197 156 163 149 128 136 135 122 110 122 133 123 111 107 120 107 96 115 102 55 40 116 180 120 102 60 61 53 45 30 46 31 34 30 30 46 132 118 139 154 152
169 154 141 135 125 115 110 106 103 105 113 114 123 132 128 123 122 146 149 149 162 196 169 140 148 148 130 124 102 105 114 124 123 111 95 86 78 84 99 128 112 65 80 127 121 115 115 100 63 56 52 41 23 36 37 15 46 86 115 142 154 169
158 145 132 127 119 112 110 100 100 107 99 94 80 70 89 98 119 127 180 168 159 174 154 134 136 148 145 154 133 141 145 131 124 109 83 53 53 63 95 97 108 66 67 70 103 66 145 117 108 88 61 31 24 17 6 33 36 69 79 106 135 179
160 147 132 126 121 115 104 111 116 107 74 58 58 80 45 74 60 73 274 210 145 128 104 108 98 94 34 81 102 115 126 113 86 78 75 28 152 131 128 119 102 66 59 60 46 70 70 93 57 48 42 35 27 0 10 5 35 41 42 51 27 17
180 162 148 143 137 135 126 114 85 88 109 110 119 95 69 55 76 63 59 79 124 111 103 107 106 74 83 102 72 88 93 77 69 69 219 210 53 78 107 148 131 117 105 72 55 48 66 75 61 16 347 35 33 18 360 5 355 1 5 345 6 2
164 179 169 149 147 138 159 155 142 149 132 125 120 118 107 76 92 70 57 54 77 105 118 120 124 133 132 123 136 126 118 125 130 169 218 227 209 258 87 132 126 119 44 101 219 258 136 145 109 176 134 318 8 348 36 26 4 13 350 350 342 329
165 179 159 138 142 149 120 111 112 148 136 109 81 116 111 96 87 83 59 49 54 77 96 90 126 144 142 148 144 129 138 151 166 184 207 233 46 43 33 78 118 126 108 59 354 189 101 320 123 132 139 103 313 21 339 18 323 10 348 338 335 323
161 174 140 141 127 101 98 92 86 108 89 108 130 106 87 67 64 69 57 49 51 64 91 97 117 137 133 139 143 144 153 156 152 164 160 147 123 91 45 72 73 92 137 154 134 31 59 108 80 115 78 96 357 118 19 300 333 319 338 333 346 340
158 165 131 128 120 116 103 85 88 76 86 81 64 66 72 47 50 91 80 47 32 45 83 97 101 110 119 119 125 139 141 139 137 124 134 134 142 103 83 55 69 117 147 149 172 59 31 68 132 252 116 92 61 14 237 172 119 336 351 345 357 346
165 152 120 127 132 127 125 127 120 119 109 101 106 102 121 137 106 101 108 72 47 45 73 92 86 97 98 101 100 109 115 116 111 95 107 112 108 102 109 135 140 135 120 113 105 97 4 54 76 130 135 154 161 189 184 173 84 221 323 253 318 323
170 137 124 133 133 118 113 128 139 144 146 147 137 168 68 38 115 100 87 77 67 49 50 94 85 84 89 94 102 96 98 92 82 75 86 91 80 84 109 160 153 147 151 144 139 147 136 114 104 63 72 100 105 82 145 130 203 98 119 324 356 19
163 138 133 130 121 128 130 133 125 128 136 140 143 143 132 121 83 115 87 67 72 50 45 56 86 76 81 94 98 89 90 91 85 75 77 74 78 61 71 57 73 85 112 141 159 164 163 139 177 123 102 64 59 44 89 125 145 169 148 135 81 356
140 128 120 119 122 130 138 143 135 127 101 63 92 107 111 85 99 84 91 57 73 68 60 51 56 79 71 75 79 92 86 84 87 79 80 74 63 60 64 71 51 57 72 74 93 126 135 145 147 127 55 61 45 1 29 18 58 25 96 105 64 65
106 94 111 113 126 134 141 131 122 126 124 114 103 82 86 101 93 93 99 80 84 76 75 71 54 55 75 74 89 89 86 90 95 94 81 92 88 75 73 74 71 82 79 86 55 82 103 114 100 76 51 131 120 9 21 18 32 52 62 50 114 46
76 96 122 138 146 151 148 136 132 135 136 135 136 128 118 98 92 93 116 111 97 91 78 82 76 60 61 66 81 78 79 72 62 63 72 73 74 91 88 93 86 78 71 82 77 85 84 78 85 75 62 66 85 77 106 101 29 37 105 113 80 70
105 142 148 144 142 142 131 120 129 144 147 153 151 153 153 158 165 150 145 133 118 91 75 77 76 82 64 51 73 64 60 56 58 63 65 66 72 79 83 84 77 79 80 73 79 80 83 87 83 81 64 64 72 78 64 92 127 90 87 118 116 120
178 158 102 110 132 142 143 152 156 160 155 155 157 156 155 152 168 155 154 136 132 121 106 93 91 108 94 63 86 97 85 85 78 68 75 70 62 69 81 81 84 80 80 86 92 95 85 74 80 86 91 63 77 68 66 29 97 97 62 86 116 113
54 46 52 70 103 141 169 174 173 162 154 153 160 158 155 153 164 160 155 150 155 151 138 140 137 129 137 88 67 85 103 95 93 101 102 100 101 95 87 86 85 87 84 92 95 90 97 99 79 79 94 85 63 70 67 62 91 84 98 76 64 110
51 30 126 162 170 174 176 176 165 148 150 159 157 155 149 150 148 144 153 138 143 145 131 151 128 124 81 84 91 95 103 111 121 124 123 113 102 95 99 95 92 94 84 94 89 94 86 93 86 84 71 85 90 62 60 54 70 71 89 87 103 150
75 262 231 195 154 142 175 161 161 163 164 150 139 130 125 121 130 140 155 149 156 167 146 132 133 96 84 105 103 104 96 103 106 107 98 112 116 113 119 108 103 104 102 124 100 90 98 89 87 85 94 93 79 71 63 69 69 76 71 90 94 78
176 229 233 190 181 191 178 152 138 131 144 150 155 158 152 145 143 143 146 150 147 166 135 120 130 127 122 110 109 110 112 105 104 109 110 101 108 118 117 112 112 105 105 105 98 113 115 99 106 100 81 79 99 90 60 74 69 73 87 81 74 77